EW1423 Weather Reports


Display with metric or nautical units.
time (UTC)temp
F
wind
direction
speed
MPH
gust
MPH
rain 1hr
in
rain 24hr
in
rain mn
in
humidity
%
barometer
mb
20260905111304 77 242 2.0 6.0 0.00 0.53 0.53 58 1023.1
20260905110803 77 220 0.0 7.0 0.00 0.53 0.53 60 1023.1
20260905105804 78 279 1.0 5.0 0.00 0.53 0.53 61 1023.1
20260905105306 77 294 1.0 5.0 0.00 0.53 0.53 61 1023.1
20260905104804 77 1 1.0 9.0 0.00 0.53 0.53 61 1023.1
20260905104304 76 287 1.0 3.0 0.00 0.53 0.53 62 1023.0
20260905103803 76 344 1.0 6.0 0.00 0.53 0.53 63 1023.0
20260905102804 75 312 1.0 3.0 0.00 0.53 0.53 65 1023.1
20260905102306 73 323 1.0 5.0 0.00 0.53 0.53 67 1023.1
20260905101803 72 288 0.0 2.0 0.00 0.53 0.53 68 1023.1
20260905101304 73 292 0.0 5.0 0.00 0.53 0.53 67 1023.1
20260905100804 74 0 0.0 2.0 0.00 0.53 0.53 70 1023.1
20260905100303 74 287 0.0 5.0 0.00 0.53 0.53 69 1023.1
20260905095305 73 177 0.0 3.0 0.00 0.53 0.53 73 1023.1
20260905094803 72 32 1.0 3.0 0.00 0.53 0.53 72 1023.0
20260905094304 72 310 0.0 2.0 0.00 0.53 0.53 74 1023.0
20260905093804 72 5 0.0 6.0 0.00 0.53 0.53 73 1023.1
20260905093303 71 293 0.0 2.0 0.00 0.53 0.53 75 1022.4
20260905092804 72 259 0.0 2.0 0.00 0.53 0.53 74 1022.4
20260905091803 72 314 0.0 3.0 0.00 0.53 0.53 74 1022.4
20260905091305 71 211 0.0 1.0 0.00 0.53 0.53 76 1022.4
20260905090803 70 326 0.0 1.0 0.00 0.53 0.53 77 1022.4
20260905085804 70 277 0.0 3.0 0.00 0.53 0.53 80 1022.4
20260905085306 69 293 0.0 3.0 0.00 0.53 0.53 80 1022.4
20260905084804 69 252 0.0 1.0 0.00 0.53 0.53 82 1022.4
20260905084304 69 275 0.0 5.0 0.00 0.53 0.53 83 1022.4
20260905083804 69 323 0.0 1.0 0.00 0.53 0.53 84 1022.4
20260905083304 68 334 0.0 3.0 0.00 0.53 0.53 85 1022.4
20260905082804 68 275 0.0 3.0 0.00 0.53 0.53 85 1022.4
20260905081803 67 279 0.0 0.0 0.00 0.53 0.53 87 1022.4
20260905081304 67 358 0.0 2.0 0.00 0.53 0.53 87 1022.4
20260905080804 67 310 1.0 3.0 0.00 0.53 0.53 86 1022.4
20260905080304 66 159 0.0 0.0 0.00 0.53 0.53 90 1022.4
20260905075306 65 138 0.0 0.0 0.00 0.53 0.53 88 1022.4
20260905074804 65 138 0.0 0.0 0.00 0.53 0.53 90 1022.4
20260905074303 65 138 0.0 0.0 0.00 0.53 0.53 91 1022.4
20260905073804 64 138 0.0 0.0 0.00 0.53 0.53 94 1022.3
20260905072804 64 138 0.0 0.0 0.00 0.53 0.53 94 1022.0
20260905072306 64 138 0.0 0.0 0.00 0.53 0.53 97 1022.0
20260905071803 63 138 0.0 0.0 0.00 0.53 0.53 97 1022.0
20260905071303 63 138 0.0 0.0 0.00 0.53 0.53 97 1022.0
20260905070804 63 138 0.0 0.0 0.00 0.53 0.53 97 1022.0
20260905070304 62 138 0.0 0.0 0.00 0.53 0.53 97 1022.0
20260905065803 62 138 0.0 0.0 0.00 0.53 0.53 98 1021.8
20260905065306 62 138 0.0 0.0 0.00 0.53 0.53 99 1021.8
20260905064804 62 138 0.0 0.0 0.00 0.53 0.53 99 1021.8
20260905064304 62 138 0.0 0.0 0.00 0.53 0.53 99 1021.8
20260905063804 61 138 0.0 0.0 0.00 0.53 0.53 100 1021.8
20260905063303 61 138 0.0 0.0 0.00 0.53 0.53 99 1021.7
20260905062804 61 138 0.0 0.0 0.00 0.53 0.53 99 1021.7
20260905061803 61 138 0.0 0.0 0.00 0.53 0.53 100 1021.7
20260905061303 61 138 0.0 0.0 0.00 0.53 0.53 100 1021.7
20260905060804 61 138 0.0 0.0 0.00 0.53 0.53 100 1021.5
20260905055306 60 138 0.0 0.0 0.00 0.53 0.53 100 1021.2
20260905053803 60 138 0.0 0.0 0.00 0.53 0.53 100 1021.0
20260905053304 60 138 0.0 0.0 0.00 0.53 0.53 100 1021.0
20260905052804 60 138 0.0 0.0 0.00 0.53 0.53 100 1021.0
20260905051803 60 138 0.0 0.0 0.00 0.53 0.53 100 1021.0
20260905051304 60 138 0.0 0.0 0.00 0.53 0.53 100 1020.7
20260905050803 60 138 0.0 0.0 0.00 0.53 0.53 100 1020.7
20260905050303 60 138 0.0 0.0 0.00 0.53 0.53 100 1020.6
20260905045306 60 138 0.0 0.0 0.02 0.53 0.53 99 1020.2
20260905044803 60 138 0.0 0.0 0.03 0.53 0.53 100 1020.2
20260905044303 60 138 0.0 0.0 0.05 0.53 0.53 99 1020.2
20260905043804 60 138 0.0 0.0 0.06 0.53 0.53 100 1020.2
20260905042804 60 138 0.0 0.0 0.07 0.53 0.53 100 1020.2
20260905042307 60 137 0.0 0.0 0.08 0.53 0.53 100 1020.2
20260905041804 60 192 0.0 0.0 0.10 0.53 0.53 100 1020.2
20260905041304 60 192 0.0 0.0 0.13 0.53 0.53 99 1020.7
20260905040804 60 192 0.0 0.0 0.14 0.53 0.53 100 1020.7
20260905035803 60 355 0.0 0.0 0.20 0.53 0.53 100 1020.7
20260905035306 60 355 0.0 0.0 0.20 0.51 0.51 99 1020.7
20260905034804 60 355 0.0 0.0 0.20 0.50 0.50 99 1020.7
20260905034304 60 355 0.0 0.0 0.19 0.48 0.48 99 1020.7
20260905033803 60 355 0.0 0.0 0.20 0.47 0.47 98 1020.5
20260905033304 60 355 0.0 0.0 0.27 0.46 0.46 99 1020.5
20260905032306 60 355 0.0 0.0 0.36 0.45 0.45 98 1020.4
20260905031803 60 355 0.0 0.0 0.34 0.43 0.43 98 1020.4
20260905031304 61 355 0.0 0.0 0.33 0.40 0.40 97 1020.4
20260905030804 61 300 0.0 0.0 0.35 0.39 0.39 97 1020.4
20260905030304 61 284 0.0 1.0 0.35 0.35 0.35 97 1020.4
20260905025803 62 315 0.0 6.0 0.33 0.33 0.33 97 1020.1
20260905025306 62 315 0.0 6.0 0.31 0.31 0.31 97 1019.9
20260905024803 62 266 0.0 1.0 0.29 0.29 0.29 97 1019.9
20260905024303 63 15 0.0 5.0 0.29 0.29 0.29 96 1019.9
20260905023804 63 7 2.0 7.0 0.27 0.27 0.27 97 1019.2
20260905023304 64 254 2.0 5.0 0.20 0.20 0.20 98 1019.2
20260905022804 64 277 0.0 2.0 0.10 0.10 0.10 97 1019.2
20260905022306 64 250 0.0 1.0 0.09 0.09 0.09 97 1019.2
20260905021803 64 299 0.0 1.0 0.09 0.09 0.09 96 1019.2
20260905020804 66 341 0.0 5.0 0.04 0.04 0.04 91 1019.2
20260905015804 68 303 0.0 3.0 0.00 0.00 0.00 82 1018.6
20260905015306 68 311 0.0 8.0 0.00 0.00 0.00 81 1018.6
20260905014804 68 324 3.0 9.0 0.00 0.00 0.00 80 1018.6
20260905014304 69 333 2.0 10.0 0.00 0.00 0.00 79 1018.6
20260905013804 69 279 1.0 5.0 0.00 0.00 0.00 79 1018.6
20260905013303 69 288 0.0 3.0 0.00 0.00 0.00 78 1018.6
20260905012803 70 317 0.0 6.0 0.00 0.00 0.00 76 1018.5
20260905012306 70 32 0.0 5.0 0.00 0.00 0.00 75 1018.5
20260905011804 70 44 0.0 5.0 0.00 0.00 0.00 74 1018.5
20260905011304 70 294 0.0 3.0 0.00 0.00 0.00 74 1018.5
20260905010804 70 306 0.0 1.0 0.00 0.00 0.00 74 1018.5
20260905010304 70 260 1.0 3.0 0.00 0.00 0.00 74 1018.4
20260905005804 70 320 0.0 5.0 0.00 0.00 0.00 74 1018.4
20260905005306 70 283 0.0 3.0 0.00 0.00 0.00 74 1017.5
20260905004804 70 342 1.0 5.0 0.00 0.00 0.00 74 1017.5
20260905004304 70 318 0.0 3.0 0.00 0.00 0.00 74 1017.5
20260905003803 70 271 1.0 5.0 0.00 0.00 0.00 74 1017.5
20260905003303 71 288 1.0 3.0 0.00 0.00 0.00 73 1017.5
20260905002804 71 44 0.0 1.0 0.00 0.00 0.00 73 1017.5
20260905002306 71 315 0.0 2.0 0.00 0.00 0.00 73 1017.5
20260905001803 71 266 1.0 5.0 0.00 0.00 0.00 73 1017.5
20260905001304 72 321 0.0 5.0 0.00 0.00 0.00 73 1017.5
20260905000804 72 290 0.0 2.0 0.00 0.00 0.00 74 1017.5
20260905000304 73 56 0.0 3.0 0.00 0.00 0.00 73 1017.5
20260904235803 73 288 1.0 5.0 0.00 0.00 0.00 72 1017.4
20260904235306 73 299 0.0 0.0 0.00 0.00 0.00 71 1016.8
20260904234303 74 310 1.0 5.0 0.00 0.00 0.00 70 1016.8
20260904233804 74 304 0.0 1.0 0.00 0.00 0.00 70 1016.8
20260904233304 73 293 0.0 2.0 0.00 0.00 0.00 70 1016.8
20260904232804 73 338 1.0 5.0 0.00 0.00 0.00 71 1016.8
20260904232306 73 305 0.0 1.0 0.00 0.00 0.00 71 1016.8
20260904231803 72 291 0.0 1.0 0.00 0.00 0.00 72 1016.8
20260904231304 71 276 0.0 2.0 0.00 0.00 0.00 73 1016.8
20260904230804 69 330 0.0 3.0 0.00 0.00 0.00 76 1015.8
20260904225803 68 355 0.0 0.0 0.00 0.00 0.00 80 1015.8
20260904225305 68 355 0.0 0.0 0.00 0.00 0.00 80 1015.8
20260904224303 68 254 0.0 0.0 0.00 0.00 0.00 81 1015.8
20260904223804 68 254 0.0 0.0 0.00 0.00 0.00 80 1015.8
20260904223303 68 254 0.0 0.0 0.00 0.00 0.00 80 1015.8
20260904222803 68 254 0.0 0.0 0.00 0.00 0.00 78 1015.8
20260904222306 69 254 0.0 0.0 0.00 0.00 0.00 78 1015.8
20260904221804 69 254 0.0 0.0 0.00 0.00 0.00 78 1015.8
20260904221304 70 254 0.0 0.0 0.00 0.00 0.00 77 1015.8
20260904220809 70 254 0.0 0.0 0.00 0.00 0.00 76 1015.8
20260904220303 70 254 0.0 0.0 0.00 0.00 0.00 76 1015.8
20260904215804 70 254 0.0 0.0 0.00 0.00 0.00 75 1015.8
20260904215305 71 254 0.0 0.0 0.00 0.00 0.00 74 1015.8
20260904214303 72 254 0.0 0.0 0.00 0.00 0.00 71 1015.8
20260904213804 73 255 0.0 0.0 0.00 0.00 0.00 70 1015.8
20260904213304 74 254 0.0 0.0 0.00 0.00 0.00 68 1015.7
20260904212804 75 255 0.0 0.0 0.00 0.00 0.00 67 1015.5
20260904211804 75 313 0.0 0.0 0.00 0.00 0.00 66 1015.5
20260904210803 75 302 0.0 0.0 0.00 0.00 0.00 66 1015.5
20260904210304 74 211 0.0 0.0 0.00 0.00 0.00 67 1015.5
20260904205804 74 211 0.0 0.0 0.00 0.00 0.00 66 1015.5
20260904205305 73 314 0.0 2.0 0.00 0.00 0.00 69 1015.5
20260904204804 72 329 0.0 1.0 0.00 0.00 0.00 73 1015.5
20260904204303 71 331 0.0 0.0 0.00 0.00 0.00 75 1015.5
20260904203805 71 331 0.0 0.0 0.00 0.00 0.00 75 1015.5
20260904203304 72 331 0.0 0.0 0.00 0.00 0.00 75 1015.4
20260904202803 72 331 0.0 0.0 0.00 0.00 0.00 75 1015.4
20260904202306 72 331 0.0 0.0 0.00 0.00 0.00 74 1015.4
20260904201803 72 331 0.0 0.0 0.00 0.00 0.00 74 1015.4
20260904201304 73 331 0.0 0.0 0.00 0.00 0.00 72 1015.3
20260904200804 73 331 0.0 0.0 0.00 0.00 0.00 72 1015.3
20260904200304 73 331 0.0 0.0 0.00 0.00 0.00 71 1015.3
20260904195804 74 331 0.0 0.0 0.00 0.00 0.00 70 1015.3
20260904195305 74 331 0.0 0.0 0.00 0.00 0.00 69 1015.2
20260904194303 75 331 0.0 0.0 0.00 0.00 0.00 68 1015.2
20260904193804 76 331 0.0 0.0 0.00 0.00 0.00 66 1015.0
20260904192803 77 331 0.0 0.0 0.00 0.00 0.00 63 1015.0
20260904192306 78 331 0.0 0.0 0.00 0.00 0.00 61 1014.7
20260904191803 79 331 0.0 2.0 0.00 0.00 0.00 59 1014.7
20260904191304 79 322 0.0 1.0 0.00 0.00 0.00 58 1014.7
20260904190803 79 322 0.0 1.0 0.00 0.00 0.00 58 1014.7
20260904190304 80 322 0.0 1.0 0.00 0.00 0.00 58 1014.7
20260904185804 80 217 0.0 2.0 0.00 0.00 0.00 57 1014.7
20260904184803 79 291 0.0 2.0 0.00 0.00 0.00 58 1014.7
20260904184304 79 289 1.0 2.0 0.00 0.00 0.00 58 1014.7
20260904183804 79 254 0.0 0.0 0.00 0.00 0.00 58 1014.5
20260904182804 80 277 0.0 1.0 0.00 0.00 0.00 57 1014.5
20260904182306 81 277 0.0 2.0 0.00 0.00 0.00 55 1014.5
20260904181304 82 299 0.0 1.0 0.00 0.00 0.00 54 1014.4
20260904180804 82 240 0.0 1.0 0.00 0.00 0.00 54 1014.4
20260904180303 82 329 0.0 2.0 0.00 0.00 0.00 52 1014.1
20260904175804 83 315 0.0 2.0 0.00 0.00 0.00 52 1014.1
20260904175305 83 269 1.0 3.0 0.00 0.00 0.00 50 1014.1
20260904174804 83 287 1.0 3.0 0.00 0.00 0.00 51 1013.8
20260904174303 84 284 1.0 5.0 0.00 0.00 0.00 51 1013.8
20260904173804 84 309 1.0 2.0 0.00 0.00 0.00 51 1013.8
20260904173303 84 269 1.0 5.0 0.00 0.00 0.00 50 1013.8
20260904172804 85 7 1.0 5.0 0.00 0.00 0.00 50 1013.8
20260904172305 85 268 0.0 3.0 0.00 0.00 0.00 50 1013.8
20260904171804 85 307 1.0 5.0 0.00 0.00 0.00 50 1013.8
20260904171303 85 277 1.0 5.0 0.00 0.00 0.00 49 1013.8
20260904170803 86 276 1.0 5.0 0.00 0.00 0.00 48 1013.8
20260904170303 86 287 1.0 7.0 0.00 0.00 0.00 48 1013.8
20260904165804 86 306 2.0 12.0 0.00 0.00 0.00 47 1013.8
20260904164803 87 269 3.0 12.0 0.00 0.00 0.00 46 1013.8
20260904163804 88 250 3.0 10.0 0.00 0.00 0.00 44 1013.8
20260904163304 89 262 0.0 7.0 0.00 0.00 0.00 44 1013.8
20260904162803 89 331 1.0 5.0 0.00 0.00 0.00 44 1013.8
20260904162306 89 290 2.0 9.0 0.00 0.00 0.00 43 1013.8
20260904161804 89 269 2.0 8.0 0.00 0.00 0.00 42 1013.8
20260904161303 90 322 2.0 12.0 0.00 0.00 0.00 42 1013.8
20260904160804 90 294 1.0 9.0 0.00 0.00 0.00 43 1013.8
20260904160304 90 4 2.0 12.0 0.00 0.00 0.00 42 1013.7
20260904154804 91 302 3.0 9.0 0.00 0.00 0.00 40 1013.6
20260904154303 91 271 2.0 7.0 0.00 0.00 0.00 39 1013.8
20260904153803 92 344 0.0 3.0 0.00 0.00 0.00 40 1013.8
20260904153304 91 308 1.0 8.0 0.00 0.00 0.00 40 1013.8
20260904152804 91 329 1.0 9.0 0.00 0.00 0.00 39 1013.8
20260904151803 92 240 1.0 6.0 0.00 0.00 0.00 39 1013.8
20260904150804 92 277 2.0 7.0 0.00 0.00 0.00 39 1013.8
20260904145804 92 279 2.0 6.0 0.00 0.00 0.00 39 1013.7
20260904145306 92 322 1.0 7.0 0.00 0.00 0.00 38 1013.7
20260904144803 92 320 2.0 7.0 0.00 0.00 0.00 39 1014.2
20260904144304 92 1 4.0 10.0 0.00 0.00 0.00 38 1014.2
20260904143804 93 252 1.0 5.0 0.00 0.00 0.00 38 1014.2
20260904143303 93 266 0.0 3.0 0.00 0.00 0.00 38 1014.2
20260904142804 94 253 1.0 6.0 0.00 0.00 0.00 37 1014.2
20260904142306 93 253 0.0 2.0 0.00 0.00 0.00 40 1014.2
20260904141803 93 18 0.0 1.0 0.00 0.00 0.00 40 1014.2
20260904141303 92 322 2.0 8.0 0.00 0.00 0.00 39 1014.4
20260904140803 93 276 1.0 6.0 0.00 0.00 0.00 39 1014.4
20260904140304 93 294 0.0 1.0 0.00 0.00 0.00 39 1014.4
20260904135804 93 288 0.0 5.0 0.00 0.00 0.00 40 1014.4
20260904135306 92 266 0.0 2.0 0.00 0.00 0.00 39 1014.4
20260904134804 92 199 0.0 2.0 0.00 0.00 0.00 39 1014.4
20260904134303 92 295 0.0 3.0 0.00 0.00 0.00 41 1015.0
20260904133803 91 20 0.0 9.0 0.00 0.00 0.00 40 1015.0
20260904133304 92 321 2.0 6.0 0.00 0.00 0.00 40 1015.0
20260904132803 91 136 2.0 8.0 0.00 0.00 0.00 42 1015.0
20260904132306 91 143 2.0 7.0 0.00 0.00 0.00 42 1015.0
20260904131803 91 339 2.0 7.0 0.00 0.00 0.00 43 1015.0
20260904131303 91 315 1.0 8.0 0.00 0.00 0.00 41 1015.0
20260904130804 91 290 2.0 5.0 0.00 0.00 0.00 42 1015.0
20260904125803 90 354 0.0 3.0 0.00 0.00 0.00 47 1015.6
20260904125305 90 102 1.0 7.0 0.00 0.00 0.00 45 1015.6
20260904124803 90 235 2.0 8.0 0.00 0.00 0.00 43 1015.6
20260904124303 89 320 1.0 7.0 0.00 0.00 0.00 44 1015.6
20260904123803 89 280 0.0 5.0 0.00 0.00 0.00 45 1015.6
20260904123304 88 277 1.0 8.0 0.00 0.00 0.00 45 1016.2
20260904122306 88 262 1.0 5.0 0.00 0.00 0.00 46 1016.2
20260904121803 88 188 0.0 3.0 0.00 0.00 0.00 46 1016.2
20260904120804 88 308 0.0 5.0 0.00 0.00 0.00 47 1016.2
20260904115804 88 337 0.0 8.0 0.00 0.00 0.00 46 1017.1
20260904115306 88 269 1.0 6.0 0.00 0.00 0.00 48 1017.1
20260904114804 88 303 1.0 6.0 0.00 0.00 0.00 47 1017.1
20260904114304 88 287 1.0 7.0 0.00 0.00 0.00 47 1017.1
20260904113804 88 321 1.0 5.0 0.00 0.00 0.00 48 1017.1
20260904113304 87 343 1.0 5.0 0.00 0.00 0.00 48 1017.1
20260904112803 88 291 0.0 5.0 0.00 0.00 0.00 48 1017.1
20260904112306 87 2 1.0 8.0 0.00 0.00 0.00 49 1017.1
20260904111804 87 279 1.0 5.0 0.00 0.00 0.00 48 1017.1